weather.gov     
National Weather Service

Regional Weather Roundup
NWS Homepage
This page is being discontinued on March 12, 2014.
The same data is available at this site. Please update your bookmarks.
Thank you, and we apologize for the inconvenience.
Please send an email to SR-SRH.Webmaster@noaa.gov with any concerns.


Current Version
Previous Version:    01  02  03  04  05  06  07  08  09  10  11  12  13  14  15  16  17  18  19  20  21  22  23  24  25  26  27  28  29  30  
   31  32  33  34  35  36  37  38  39  40  41  42  43  44  45  46  47  48  49  50  51  52  53  54  
[Printable]
622
ASUS44 KMEG 251010
RWRTN
TENNESSEE HOURLY STATE WEATHER ROUNDUP
NATIONAL WEATHER SERVICE MEMPHIS TN
500 AM CDT SAT OCT 25 2014

TNZ002-004-019-021-049-052-054-088>092-251100-
WEST TENNESSEE

CITY           SKY/WX    TMP DP  RH WIND       PRES   REMARKS
MEMPHIS INTL   CLEAR     57  53  86 CALM      30.09R
NWS MEMPHIS      N/A     52 N/A N/A MISG        N/A
JACKSON        CLOUDY    51  49  92 S3        30.08S
DYERSBURG      CLEAR     52  43  71 S3        30.08S
UNION CITY     CLEAR     48  48 100 S5        30.05S
PARIS          MOCLDY    52  48  87 S6        30.06F
HUNTINGDON     PTCLDY    49  48  96 CALM      30.08S
LEXINGTON      CLOUDY    45  45 100 CALM      30.08R
SAVANNAH       CLEAR     43  43 100 CALM      30.10R
$$

TNZ008-025-027-028-033-062-065-066-251100-
NORTH MIDDLE TENNESSEE

CITY           SKY/WX    TMP DP  RH WIND       PRES   REMARKS
NASHVILLE      PTCLDY    46  44  93 CALM      30.09S
CLARKSVILLE    PTCLDY    46  45  96 CALM      30.06F FOG
SMYRNA         CLEAR     43  43 100 CALM      30.11R FOG
COOKEVILLE     CLEAR     37  37 100 CALM      30.10R
CROSSVILLE     CLEAR     42  38  85 CALM      30.10S
$$

TNZ061-075-076-078-094-096-097-251100-
SOUTH MIDDLE TENNESSEE

CITY           SKY/WX    TMP DP  RH WIND       PRES   REMARKS
FAYETTEVILLE   CLEAR     43  41  93 E7G17     30.09R
TULLAHOMA      CLEAR     39  37  93 CALM      30.10R
WINCHESTER     CLEAR     39  39 100 CALM      30.10S
MCMINNVILLE    CLEAR     39  39 100 CALM      30.10R
COLUMBIA       CLEAR    N/A N/A N/A CALM      30.08R
SHELBYVILLE    CLEAR     43  43 100 E3        30.11R
$$

TNZ017-018-042-046-047-251100-
NORTHEAST TENNESSEE

CITY           SKY/WX    TMP DP  RH WIND       PRES   REMARKS
TRI CITIES     FOG       35  34  96 CALM      30.10R VSB 1/2
ELIZABETHTON   SUNNY     36  34  93 CALM      30.11R
$$

TNZ012-013-036-069-073-074-251100-
CENTRAL EAST TENNESSEE

CITY           SKY/WX    TMP DP  RH WIND       PRES   REMARKS
KNOXVILLE      CLEAR     43  41  93 CALM      30.09R
OAK RIDGE      CLOUDY    41  39  93 CALM      30.12R FOG
GATLINBURG     SUNNY     36  36 100 CALM      30.09R
MORRISTOWN     SUNNY     41  39  93 CALM      30.10R
$$

TNZ083-085-099-251100-
SOUTHEAST TENNESSEE

CITY           SKY/WX    TMP DP  RH WIND       PRES   REMARKS
CHATTANOOGA    CLEAR     46  43  89 CALM      30.09R
$$

SKY/WX REPORTED AS FAIR MEANS FEW OR NO CLOUDS BELOW
12 THOUSAND FEET.





U.S. Dept. of Commerce
NOAA National Weather Service
1325 East West Highway
Silver Spring, MD 20910
E-mail: w-nws.webmaster@noaa.gov
Page last modified: May 16, 2007
NATIONAL WEATHER SERVICE: for Safety, for Work, for Fun - FOR LIFE